Change the Weather History Date:

Sunday, June 2, 2013

  Actual Average (KGUC) Record (KGUC)
Temperature  
Mean Temperature 47 °F -  
Max Temperature 59 °F 69 °F 78 °F (1998)
Min Temperature 35 °F 35 °F 30 °F (2013)
Degree Days  
Heating Degree Days 18    
Moisture  
Dew Point 15 °F    
Average Humidity 32    
Maximum Humidity 48    
Minimum Humidity 17    
Precipitation  
Precipitation 0.00 in - - ()
Sea Level Pressure  
Sea Level Pressure 30.54 in    
Wind  
Wind Speed 19 mph (WSW)    
Max Wind Speed 38 mph    
Max Gust Speed 55 mph    
Averages and records for this station are not official NWS values.
T = Trace of Precipitation, MM = Missing Value Source: NWS Daily Summary

Daily Weather History Graph

Daily Weather History Graph

Search for Another Location

Airport or City:

Trip Planner

Search our weather history database for the weather conditions in past years. The results will help you decide how hot, cold, wet, or windy it might be!

Date:

Astronomy

Jun. 02, 2013 Rise Set
Actual Time 5:42 AM MDT 8:24 PM MDT
Civil Twilight 5:11 AM MDT 8:55 PM MDT
Nautical Twilight 4:32 AM MDT 9:34 PM MDT
Astronomical Twilight 3:48 AM MDT 10:18 PM MDT
Moon 2:06 AM MDT (6/2) 3:01 PM MDT (6/2)
Length of Visible Light 15h 44m
Length of Day
14h 41m
Waning Crescent, 30% of the Moon is Illuminated
Jun 2
Waning Crescent
Jun 8
New
Jun 16
First Quarter
Jun 23
Full
Jun 29
Last Quarter

Hourly Weather History & Observations

Time (MDT) Temp. Windchill Dew Point Humidity Pressure Visibility Wind Dir Wind Speed Gust Speed Precip Events Conditions
12:13 AM 37.4 °F 33.8 °F 19.4 °F 48% 30.61 in - West 4.6 mph - N/A   Clear
12:33 AM 37.4 °F 32.8 °F 17.6 °F 45% 30.61 in - WSW 5.8 mph - N/A   Clear
12:53 AM 37.4 °F 30.8 °F 15.8 °F 41% 30.61 in - SW 9.2 mph - N/A   Clear
1:13 AM 37.4 °F 29.3 °F 15.8 °F 41% 30.60 in - SW 12.7 mph - N/A   Clear
1:33 AM 37.4 °F 27.8 °F 15.8 °F 41% 30.60 in - WSW 17.3 mph - N/A   Clear
1:53 AM 37.4 °F 27.8 °F 17.6 °F 45% 30.59 in - West 17.3 mph - N/A   Clear
2:13 AM 37.4 °F 27.5 °F 17.6 °F 45% 30.58 in - WSW 18.4 mph - N/A   Clear
2:33 AM 37.4 °F 27.5 °F 17.6 °F 45% 30.58 in - WSW 18.4 mph - N/A   Clear
2:53 AM 37.4 °F 27.8 °F 17.6 °F 45% 30.57 in - West 17.3 mph - N/A   Clear
3:13 AM 37.4 °F 27.8 °F 15.8 °F 41% 30.56 in - West 17.3 mph - N/A   Clear
3:33 AM 37.4 °F 27.5 °F 10.4 °F 33% 30.56 in - West 18.4 mph - N/A   Clear
3:53 AM 37.4 °F 28.2 °F 12.2 °F 36% 30.56 in - WSW 16.1 mph - N/A   Clear
4:13 AM 35.6 °F 25.9 °F 14.0 °F 41% 30.56 in - WSW 16.1 mph - N/A   Clear
4:33 AM 35.6 °F 24.5 °F 14.0 °F 41% 30.56 in - WSW 20.7 mph - N/A   Clear
4:53 AM 37.4 °F 27.5 °F 8.6 °F 30% 30.56 in - SW 18.4 mph - N/A   Clear
5:13 AM 35.6 °F 25.9 °F 14.0 °F 41% 30.56 in - SW 16.1 mph - N/A   Clear
5:33 AM 35.6 °F 25.9 °F 14.0 °F 41% 30.56 in - SW 16.1 mph - N/A   Clear
5:53 AM 35.6 °F 25.9 °F 12.2 °F 38% 30.56 in - SW 16.1 mph - N/A   Clear
6:13 AM 35.6 °F 25.2 °F 15.8 °F 44% 30.56 in - SW 18.4 mph - N/A   Clear
6:33 AM 35.6 °F 24.8 °F 15.8 °F 44% 30.56 in - SW 19.6 mph - N/A   Clear
6:53 AM 35.6 °F 25.5 °F 17.6 °F 48% 30.56 in - SW 17.3 mph - N/A   Clear
7:13 AM 35.6 °F 25.2 °F 17.6 °F 48% 30.56 in - SW 18.4 mph - N/A   Clear
7:33 AM 35.6 °F 25.2 °F 17.6 °F 48% 30.56 in - SW 18.4 mph - N/A   Clear
7:53 AM 37.4 °F 26.9 °F 17.6 °F 45% 30.57 in - SW 20.7 mph - N/A   Clear
8:13 AM 41.0 °F 31.9 °F 15.8 °F 36% 30.57 in - WSW 19.6 mph 24.2 mph N/A   Clear
8:33 AM 42.8 °F 33.5 °F 12.2 °F 29% 30.56 in - SW 23.0 mph - N/A   Clear
8:53 AM 41.0 °F 31.9 °F 14.0 °F 33% 30.56 in - WSW 19.6 mph - N/A   Clear
9:13 AM 42.8 °F 32.9 °F 12.2 °F 29% 30.56 in - WSW 26.5 mph 32.2 mph N/A   Clear
9:33 AM 44.6 °F 34.9 °F 12.2 °F 27% 30.56 in - West 28.8 mph 34.5 mph N/A   Clear
9:53 AM 44.6 °F 35.3 °F 12.2 °F 27% 30.56 in - WSW 26.5 mph 34.5 mph N/A   Clear
10:13 AM 44.6 °F 34.7 °F 10.4 °F 25% 30.56 in - West 29.9 mph 38.0 mph N/A   Clear
10:33 AM 44.6 °F 33.9 °F 8.6 °F 23% 30.56 in - West 35.7 mph 43.7 mph N/A   Clear
10:53 AM 46.4 °F 36.1 °F 6.8 °F 20% 30.55 in - West 38.0 mph 47.2 mph N/A   Clear
11:13 AM 46.4 °F 36.5 °F 8.6 °F 22% 30.55 in - West 34.5 mph 47.2 mph N/A   Clear
11:33 AM 48.2 °F - 8.6 °F 20% 30.55 in - West 36.8 mph 46.0 mph N/A   Clear
11:53 AM 50.0 °F - 10.4 °F 20% 30.55 in - West 31.1 mph 39.1 mph N/A   Clear
12:13 PM 50.0 °F - 8.6 °F 19% 30.55 in - West 35.7 mph 46.0 mph N/A   Clear
12:33 PM 51.8 °F - 8.6 °F 18% 30.55 in - West 31.1 mph 44.9 mph N/A   Clear
12:53 PM 51.8 °F - 10.4 °F 19% 30.55 in - West 34.5 mph 44.9 mph N/A   Clear
1:13 PM 51.8 °F - 12.2 °F 21% 30.54 in - West 33.4 mph 39.1 mph N/A   Clear
1:33 PM 53.6 °F - 12.2 °F 19% 30.54 in - WSW 25.3 mph 38.0 mph N/A   Clear
1:53 PM 53.6 °F - 12.2 °F 19% 30.53 in - West 36.8 mph 44.9 mph N/A   Clear
2:13 PM 53.6 °F - 10.4 °F 18% 30.54 in - West 26.5 mph 46.0 mph N/A   Clear
2:33 PM 53.6 °F - 12.2 °F 19% 30.53 in - West 28.8 mph 39.1 mph N/A   Clear
2:53 PM 53.6 °F - 12.2 °F 19% 30.52 in - West 32.2 mph 46.0 mph N/A   Clear
3:13 PM 55.4 °F - 12.2 °F 18% 30.52 in - West 36.8 mph 44.9 mph N/A   Clear
3:33 PM 55.4 °F - 10.4 °F 17% 30.51 in - West 35.7 mph 46.0 mph N/A   Clear
3:53 PM 55.4 °F - 14.0 °F 20% 30.50 in - West 34.5 mph 46.0 mph N/A   Clear
4:13 PM 57.2 °F - 14.0 °F 18% 30.49 in - West 34.5 mph 44.9 mph N/A   Clear
4:33 PM 59.0 °F - 14.0 °F 17% 30.49 in - West 23.0 mph 39.1 mph N/A   Clear
4:53 PM 59.0 °F - 15.8 °F 19% 30.50 in - WNW 20.7 mph 38.0 mph N/A   Clear
5:13 PM 55.4 °F - 14.0 °F 20% 30.49 in - West 25.3 mph 33.4 mph N/A   Clear
5:33 PM 59.0 °F - 15.8 °F 19% 30.49 in - West 31.1 mph 40.3 mph N/A   Mostly Cloudy
5:53 PM 53.6 °F - 15.8 °F 22% 30.49 in - WSW 26.5 mph 42.6 mph N/A   Mostly Cloudy
6:13 PM 51.8 °F - 17.6 °F 26% 30.49 in - SSW 28.8 mph 39.1 mph N/A   Overcast
6:33 PM 50.0 °F - 21.2 °F 32% 30.51 in - West 15.0 mph 55.2 mph N/A   Overcast
6:53 PM 50.0 °F - 21.2 °F 32% 30.51 in - West 28.8 mph 44.9 mph N/A   Overcast
7:13 PM 48.2 °F - 21.2 °F 34% 30.49 in - SW 29.9 mph 40.3 mph N/A   Overcast
7:33 PM 48.2 °F - 19.4 °F 32% 30.50 in - West 26.5 mph 41.4 mph N/A   Overcast
7:53 PM 48.2 °F - 19.4 °F 32% 30.49 in - West 23.0 mph 31.1 mph N/A   Overcast
8:13 PM 46.4 °F 38.1 °F 21.2 °F 37% 30.49 in - West 24.2 mph 41.4 mph N/A   Mostly Cloudy
8:33 PM 46.4 °F 38.5 °F 21.2 °F 37% 30.49 in - West 21.9 mph 28.8 mph N/A   Scattered Clouds
8:53 PM 44.6 °F 35.9 °F 21.2 °F 39% 30.49 in - West 23.0 mph 29.9 mph N/A   Clear
9:13 PM 44.6 °F 36.4 °F 21.2 °F 39% 30.49 in - West 20.7 mph - N/A   Scattered Clouds
9:33 PM 44.6 °F 37.8 °F 21.2 °F 39% 30.50 in - West 15.0 mph - N/A   Scattered Clouds
9:53 PM 44.6 °F 37.4 °F 21.2 °F 39% 30.51 in - West 16.1 mph - N/A   Clear
10:13 PM 44.6 °F 37.4 °F 21.2 °F 39% 30.51 in - West 16.1 mph - N/A   Clear
10:33 PM 44.6 °F 37.8 °F 21.2 °F 39% 30.51 in - WSW 15.0 mph - N/A   Scattered Clouds
10:53 PM 44.6 °F 35.1 °F 21.2 °F 39% 30.49 in - SW 27.6 mph 34.5 mph N/A   Scattered Clouds
11:13 PM 44.6 °F 35.5 °F 21.2 °F 39% 30.48 in - WSW 25.3 mph - N/A   Scattered Clouds
11:33 PM 44.6 °F 35.9 °F 21.2 °F 39% 30.47 in - WSW 23.0 mph 27.6 mph N/A   Clear
11:53 PM 42.8 °F 33.3 °F 21.2 °F 42% 30.48 in - SW 24.2 mph - N/A   Clear